Printer-friendly version

IAU Minor Planet Center

Minor Planet Center

89P/Russell

Orbital Elements

The following orbital elements are taken from MPC 56804:
89P/Russell
Epoch 2009 Sept. 6.0 TT = JDT 2455080.5
T 2009 Aug. 17.1630 TT                                  MPC
q   2.279933             (2000.0)            P               Q
n   0.1332243      Peri.  249.3242      +0.3560403      +0.9238454
a   3.796764       Node    42.3849      -0.7609050      +0.3739037
e   0.399506       Incl.   12.0315      -0.5424563      +0.0818886
P   7.40
From 93 observations 1980-2002, mean residual 0".8.
Elements are also available for the current standard epoch:
89P/Russell
Epoch 2010 Jan. 4.0 TT = JDT 2455200.5
T 2009 Aug. 17.1126 TT                                  MPC
q   2.279762             (2000.0)            P               Q
n   0.1331303      Peri.  249.3256      +0.3556865      +0.9239901
a   3.798552       Node    42.3614      -0.7610239      +0.3735768
e   0.399834       Incl.   12.0321      -0.5425216      +0.0817477
P   7.40
An explanation of the orbital elements is available.

These orbital elements are also available in forms suitable for loading into a number of popular planetarium-type software programs.


Ephemeris

The following ephemeris is at intervals of five days. A daily ephemeris covering the same time interval is also available.

Personalized ephemerides for this (and other) objects may be generated using the Minor Planet & Comet Ephemeris Service.

Recent magnitude estimates for this comet (as reported to the ICQ) may be available.

Date    TT    R. A. (2000) Decl.     Delta      r     Elong.  Phase   m1    m2

WARNING!

This comet gets close to the sun during the period covered in the ephemeris below. Observers are warned to be wary of observing comets near the sun. NEVER point any kind of optical instrument at the sun--instant blindness will be the probable result.

2009 10 26 19 34.53 -33 49.8 2.336 2.334 77.6 24.6 18.9 21.3 2009 10 31 19 44.05 -33 11.2 2.398 2.342 74.8 24.1 18.9 21.4 2009 11 05 19 53.69 -32 30.8 2.460 2.350 72.0 23.7 19.0 21.4 2009 11 10 20 03.41 -31 48.5 2.522 2.359 69.2 23.1 19.1 21.5 2009 11 15 20 13.20 -31 04.3 2.583 2.369 66.5 22.5 19.2 21.5 2009 11 20 20 23.03 -30 18.3 2.645 2.378 63.7 21.9 19.3 21.6 2009 11 25 20 32.87 -29 30.5 2.705 2.388 61.0 21.2 19.3 21.6 2009 11 30 20 42.71 -28 41.0 2.766 2.399 58.3 20.5 19.4 21.6 2009 12 05 20 52.52 -27 49.8 2.825 2.410 55.6 19.7 19.5 21.7 2009 12 10 21 02.29 -26 57.2 2.884 2.422 52.9 18.9 19.6 21.7 2009 12 15 21 12.02 -26 03.0 2.942 2.433 50.3 18.1 19.6 21.7 2009 12 20 21 21.69 -25 07.5 2.999 2.446 47.6 17.3 19.7 21.7 2009 12 25 21 31.29 -24 10.7 3.055 2.458 44.9 16.4 19.8 21.8 2009 12 30 21 40.81 -23 12.9 3.109 2.471 42.3 15.5 19.9 21.8 2010 01 04 21 50.24 -22 14.0 3.162 2.485 39.6 14.6 19.9 21.8 2010 01 09 21 59.59 -21 14.3 3.213 2.498 37.0 13.7 20.0 21.8 2010 01 14 22 08.85 -20 13.8 3.263 2.513 34.3 12.8 20.1 21.8 2010 01 19 22 18.01 -19 12.7 3.311 2.527 31.7 11.8 20.1 21.8 2010 01 24 22 27.07 -18 11.1 3.356 2.542 29.1 10.8 20.2 21.8 2010 01 29 22 36.04 -17 09.2 3.400 2.556 26.4 9.9 20.3 21.8 2010 02 03 22 44.90 -16 07.0 3.442 2.572 23.8 8.9 20.3 21.8 2010 02 08 22 53.67 -15 04.6 3.482 2.587 21.3 7.9 20.4 21.8 2010 02 13 23 02.33 -14 02.2 3.519 2.603 18.7 7.0 20.5 21.8 2010 02 18 23 10.90 -13 00.0 3.554 2.619 16.2 6.0 20.5 21.8 2010 02 23 23 19.37 -11 57.9 3.586 2.635 13.7 5.1 20.6 21.8 2010 02 28 23 27.73 -10 56.2 3.615 2.652 11.4 4.2 20.6 21.8 2010 03 05 23 36.00 -09 54.9 3.642 2.668 9.3 3.4 20.7 21.8 2010 03 10 23 44.17 -08 54.2 3.667 2.685 7.5 2.8 20.8 21.8 2010 03 15 23 52.24 -07 54.0 3.688 2.702 6.5 2.4 20.8 21.8 2010 03 20 00 00.21 -06 54.6 3.706 2.720 6.6 2.4 20.9 21.8 2010 03 25 00 08.09 -05 55.9 3.722 2.737 7.8 2.8 20.9 21.8 2010 03 30 00 15.86 -04 58.2 3.734 2.755 9.6 3.5 21.0 21.9 2010 04 04 00 23.53 -04 01.4 3.744 2.772 11.8 4.2 21.0 22.0 2010 04 09 00 31.10 -03 05.7 3.750 2.790 14.2 5.1 21.1 22.0 2010 04 14 00 38.57 -02 11.1 3.753 2.808 16.8 5.9 21.1 22.1 2010 04 19 00 45.93 -01 17.6 3.753 2.826 19.5 6.8 21.1 22.1 2010 04 24 00 53.18 -00 25.4 3.750 2.845 22.2 7.7 21.2 22.2 2010 04 29 01 00.32 +00 25.5 3.744 2.863 25.0 8.5 21.2 22.2 2010 05 04 01 07.33 +01 15.0 3.735 2.882 27.8 9.4 21.3 22.3 2010 05 09 01 14.23 +02 03.2 3.723 2.900 30.7 10.2 21.3 22.3 2010 05 14 01 21.00 +02 49.9 3.707 2.919 33.6 11.0 21.3 22.4 2010 05 19 01 27.64 +03 35.0 3.688 2.938 36.5 11.8 21.4 22.4 2010 05 24 01 34.12 +04 18.7 3.667 2.957 39.5 12.6 21.4 22.4 2010 05 29 01 40.46 +05 00.7 3.642 2.975 42.5 13.3 21.4 22.4 2010 06 03 01 46.64 +05 41.1 3.615 2.994 45.6 14.0 21.4 22.5 2010 06 08 01 52.64 +06 19.9 3.585 3.013 48.7 14.7 21.5 22.5 2010 06 13 01 58.46 +06 57.0 3.552 3.033 51.9 15.3 21.5 22.5 2010 06 18 02 04.09 +07 32.4 3.516 3.052 55.2 15.9 21.5 22.5 2010 06 23 02 09.50 +08 06.0 3.478 3.071 58.5 16.4 21.5 22.5 2010 06 28 02 14.68 +08 37.9 3.437 3.090 61.8 16.9 21.5 22.5 2010 07 03 02 19.62 +09 08.1 3.395 3.109 65.2 17.3 21.5 22.5 2010 07 08 02 24.30 +09 36.5 3.350 3.128 68.7 17.6 21.6 22.5 2010 07 13 02 28.69 +10 03.0 3.304 3.148 72.3 17.9 21.6 22.5 2010 07 18 02 32.78 +10 27.8 3.255 3.167 76.0 18.1 21.6 22.5 2010 07 23 02 36.54 +10 50.7 3.206 3.186 79.8 18.3 21.6 22.5 2010 07 28 02 39.95 +11 11.9 3.156 3.205 83.6 18.3 21.6 22.5 2010 08 02 02 43.00 +11 31.2 3.104 3.225 87.6 18.3 21.6 22.4 2010 08 07 02 45.64 +11 48.6 3.052 3.244 91.6 18.2 21.6 22.4 2010 08 12 02 47.86 +12 04.2 3.001 3.263 95.8 18.0 21.6 22.4 2010 08 17 02 49.63 +12 18.0 2.949 3.282 100.1 17.7 21.6 22.4 2010 08 22 02 50.93 +12 29.9 2.899 3.302 104.6 17.2 21.6 22.3 2010 08 27 02 51.74 +12 39.9 2.849 3.321 109.2 16.7 21.6 22.3 2010 09 01 02 52.05 +12 48.0 2.802 3.340 113.9 16.0 21.6 22.2 2010 09 06 02 51.84 +12 54.3 2.756 3.359 118.7 15.3 21.6 22.2 2010 09 11 02 51.09 +12 58.8 2.714 3.378 123.7 14.4 21.6 22.1 2010 09 16 02 49.82 +13 01.4 2.675 3.397 128.9 13.3 21.6 22.1 2010 09 21 02 48.04 +13 02.2 2.640 3.416 134.1 12.2 21.6 22.0 2010 09 26 02 45.77 +13 01.4 2.610 3.435 139.6 10.9 21.6 21.9 2010 10 01 02 43.04 +12 58.9 2.585 3.454 145.1 9.5 21.6 21.9 2010 10 06 02 39.89 +12 55.0 2.566 3.473 150.8 8.1 21.7 21.8 2010 10 11 02 36.39 +12 49.7 2.553 3.492 156.5 6.5 21.7 21.7 2010 10 16 02 32.61 +12 43.4 2.547 3.511 162.4 4.9 21.7 2010 10 21 02 28.63 +12 36.3 2.549 3.529 168.3 3.3 21.6 2010 10 26 02 24.53 +12 28.7 2.558 3.548 174.1 1.6 21.5 2010 10 31 02 20.42 +12 20.9 2.574 3.567 178.4 0.4 21.4 2010 11 05 02 16.36 +12 13.2 2.598 3.585 173.5 1.8 21.6 2010 11 10 02 12.46 +12 06.0 2.630 3.604 167.6 3.4 21.7 2010 11 15 02 08.79 +11 59.8 2.669 3.622 161.7 4.9 21.8 2010 11 20 02 05.43 +11 54.7 2.716 3.640 155.9 6.4 22.0 2010 11 25 02 02.43 +11 51.0 2.769 3.659 150.2 7.7 22.1 2010 11 30 01 59.83 +11 49.0 2.829 3.677 144.5 9.0 22.2

Valid HTML 4.01!